CZ-6A DEB

基本信息
目录编号:
64653
目录名称:
CZ-6A DEB
国际标识:
2024-140AET
轨道中心:
EARTH
物体状态:
在轨
发射日期:
2024-08-06 UTC
轨道信息
数据来源: 国际轨道数据
星历时间: 2026-09-12T07:37:09+0800
半长轴: 6901.57km
偏心率: 0.0035262
轨道倾角: 88.923°
近地点辐角: 201.438°
升交点赤经: 249.924°
平近点角: 158.539°
近地点: 499.096km
远地点: 547.77km
周期: 95.100分钟
每日圈数: 15.141919
详细信息
发射场:
TSC
轨道高度:
LEO
数据来源:
AOE Integration Group
参考系:
TEME
时间系统:
UTC
历元类型:
SGP4
2D轨道图
3D轨道图
轨道高度分析图
轨道倾角分析图
轨道综合分析图
查看轨道综合分析图